Location: Sungai Dangang
(2.7500°N, 113.8333°E)
Time: 12:36:52
(UTC+00:00)

Ariane H10+ - Pass Details

Date: 29 September 2021
Orbit: 237 x 7764 km, 6.8° (Epoch: 15 October)

Event Time Altitude Azimuth Distance (km) Brightness Sun altitude
Exits shadow 21:44:14 - 261° (W) 5,856 5.9 -7.8°
Reaches altitude 10° 21:45:04 10° 261° (W) 5,746 5.8 -7.5°
Maximum altitude 22:09:55 88° 172° (S) 6,010 6.6 -1.3°
Drops below altitude 10° 23:10:54 10° 84° (E) 10,742 10.2 13.9°
Sets 23:19:23 0° 84° (E) 11,088 9.6 16.0°
